James Reserve, California Weather observations

Data are for 10 minute period ending at time listed.
 Day   Time   Solar   Ave.   Ave.  Ave.  Vector  Max.   Baro.   Total    
  of    of     Rad.   Air    Rel.  Wind   Wind   Wind  Press.  Precip.   
Year   Day            Temp.  Hum.  Speed  Dir.   Gust                    
2017   (PST)  Kw/m2    F      %     mph   deg.    mph    mb.     in.     
-------------------------------------------------------------------------
  49    3:40   0.00   32.2    99    0.4   256     0.7   819.0    0.00 
  49    3:50   0.00   32.2    99    0.4    27     0.7   819.0    0.00 
  49    4:00   0.00   32.3    99    0.3   188     0.9   819.0    0.00 
  49    4:10   0.00   32.3    99    0.2    30     0.4   819.0    0.00 
  49    4:20   0.00   32.3    99    0.1   170     0.3   819.0    0.00 
  49    4:30   0.00   32.3    99    0.2   340     0.4   819.0    0.00 
  49    4:40   0.00   32.3    99    0.3    44     0.5   819.0    0.00 
  49    4:50   0.00   32.3    99    0.2   232     0.6   820.0    0.00 
  49    5:00   0.00   32.3    99    0.4    33     0.9   820.0    0.00 
  49    5:10   0.00   32.3    99    0.2    42     0.4   819.0    0.00 
  49    5:20   0.00   32.3    99    0.3    22     0.6   819.0    0.00 
  49    5:30   0.00   32.3    99    0.3    52     0.8   819.0    0.00 
  49    5:40   0.00   32.3    99    0.2    21     0.6   820.0    0.00 
  49    5:50   0.00   32.4    99    0.3    43     0.5   820.0    0.00 
  49    6:00   0.00   32.4    99    0.2    61     0.7   820.0    0.00 
  49    6:10   0.00   32.4    99    0.2    16     0.8   820.0    0.00 
  49    6:20   0.00   32.3    99    0.2   226     0.5   820.0    0.01 
  49    6:30   0.00   32.3    99    0.3    42     0.6   820.0    0.00 
  49    6:40   0.00   32.3    99    0.3    43     0.5   820.0    0.00 
  49    6:50   0.00   32.4    99    0.3    39     0.7   820.0    0.00 
  49    7:00   0.00   32.3    99    0.5   218     1.4   820.0    0.00 
  49    7:10   0.01   32.4    99    0.3    22     0.9   820.0    0.00 
  49    7:20   0.01   32.4    99    0.5    44     1.0   820.0    0.00 
  49    7:30   0.02   32.5    99    0.4    74     0.9   820.0    0.00 
  49    7:40   0.02   32.6    99    0.3    24     0.6   820.0    0.00 
  49    7:50   0.02   32.7    99    0.4    50     1.1   821.0    0.00 
  49    8:00   0.02   32.8    99    0.3   333     0.6   821.0    0.00 
  49    8:10   0.02   32.8    99    0.5    49     1.2   821.0    0.00 
  49    8:20   0.02   32.9    99    0.4    44     0.7   821.0    0.00 
  49    8:30   0.03   32.9    99    0.3    44   99999.0   821.0    0.00 
  49    8:40   0.04   33.1    99    0.2   356     0.6   821.0    0.00 
  49    8:50   0.04   33.2    99    0.3    42     0.6   821.0    0.00 
  49    9:00   0.04   33.3    99    0.2    48     0.4   821.0    0.00 
  49    9:10   0.04   33.6    99    0.1   360     0.4   821.0    0.00 
  49    9:20   0.04   33.8    99    0.2    39     0.3   822.0    0.00 
  49    9:30   0.05   33.8    99    0.4    43     0.8   822.0    0.00 
  49    9:40   0.06   34.0    99    0.1   254     0.3   822.0    0.00 
  49    9:50   0.07   34.3    99    0.2    35     0.4   822.0    0.00 
  49   10:00   0.09   34.6    99    0.1   354     0.4   822.0    0.00 
  49   10:10   0.15   35.1    99    0.1   177     0.2   822.0    0.00 
  49   10:20   0.17   35.4    99    0.4   201     1.0   822.0    0.00 
  49   10:30   0.21   35.8    99    0.5   207     1.0   821.0    0.00 
  49   10:40   0.17   35.8    99    0.5   207     1.4   821.0    0.00 
  49   10:50   0.15   35.9    99    0.3    36     0.7   822.0    0.00 
  49   11:00   0.14   35.9    99    0.3     2     0.8   822.0    0.00 
  49   11:10   0.15   36.2    99    0.5   222     1.3   822.0    0.00 
  49   11:20   0.14   36.3    99    0.4   232     0.9   822.0    0.00 
  49   11:30   0.16   36.2    99    0.5   260     1.0   822.0    0.00 
  49   11:40   0.23   36.1    99    0.4   131     1.1   822.0    0.00 
  49   11:50   0.28   36.7    98    0.5    94     1.0   822.0    0.00 
  49   12:00   0.29   37.3    98    0.7   209     1.4   821.0    0.00 
  49   12:10   0.41   37.7    98    0.7   194     1.7   821.0    0.00 
  49   12:20   0.34   38.3    96    0.6   289     1.6   821.0    0.00 
  49   12:30   0.49   38.9    94    0.7   186     1.8   821.0    0.00 
  49   12:40   0.38   39.1    94    0.7   206     1.7   821.0    0.00 
  49   12:50   0.30   39.0    94    0.7   189     1.8   821.0    0.00 
  49   13:00   0.14   38.4    94    0.6   184     1.9   821.0    0.00 
  49   13:10   0.07   38.2    94    0.5   339     1.6   821.0    0.00 
  49   13:20   0.07   38.0    96    0.5    34     1.9   821.0    0.00 
  49   13:30   0.07   37.6    96    0.7   109     1.9   821.0    0.00 
  49   13:40   0.03   37.2    97    0.6    42     1.6   821.0    0.00 
  49   13:50   0.02   37.2    97    0.6    12     1.3   822.0    0.00 
  49   14:00   0.03   36.9    98    0.5     7     1.4   822.0    0.00 
  49   14:10   0.03   36.8    98    0.6    11     1.7   822.0    0.00 
  49   14:20   0.03   36.9    98    0.6    21     1.6   822.0    0.00 
  49   14:30   0.03   36.9    98    0.4    16     1.2   822.0    0.00 
  49   14:40   0.05   36.7    98    0.4    81     1.0   822.0    0.00 
  49   14:50   0.05   36.6    98    0.4   136     1.0   822.0    0.00 
  49   15:00   0.04   36.7    98    0.5    62     1.1   822.0    0.00 
  49   15:10   0.02   36.8    98    0.4   203     1.0   822.0    0.00 
  49   15:20   0.02   36.9    98    0.3   165     0.9   822.0    0.00 
  49   15:30   0.01   37.0    98    0.4    44     0.8   822.0    0.00 
  49   15:40   0.01   37.0    98    0.3   132     0.8   822.0    0.00 
  49   15:50   0.01   37.1    98    0.3    41     0.8   822.0    0.00 
  49   16:00   0.01   37.2    98    0.3    32     0.6   822.0    0.00 
  49   16:10   0.01   37.3    98    0.3   203     0.6   822.0    0.00 
  49   16:20   0.01   37.3    98    0.7    76     1.5   822.0    0.00 
  49   16:30   0.01   37.2    98    0.6    57     1.3   822.0    0.01 
  49   16:40   0.01   37.3    98    0.4    87     1.5   822.0    0.00 
  49   16:50   0.01   37.3    98    0.5    17     1.3   822.0    0.00 
  49   17:00   0.00   37.2    98    0.4    48     0.9   823.0    0.00 
  49   17:10   0.00   37.2    98    0.4    83     1.1   823.0    0.00 
  49   17:20   0.00   37.1    98    0.4    98     0.8   823.0    0.00 
  49   17:30   0.00   37.0    98    0.4    73     0.6   823.0    0.00 
  49   17:40   0.00   37.0    98    0.2    57     0.5   823.0    0.00 
  49   17:50   0.00   37.1    99    0.2    52     0.4   823.0    0.00 
  49   18:00   0.00   37.1    99    0.4   214     0.7   823.0    0.00 
  49   18:10   0.00   37.1    99    0.2   221     0.5   823.0    0.00 
  49   18:20   0.00   37.2    99    0.4    41     1.2   823.0    0.00 
  49   18:30   0.00   37.3    99    0.2   351     0.4   823.0    0.00 
  49   18:40   0.00   37.3    99    0.2    21     0.5   823.0    0.00 
  49   18:50   0.00   37.3    99    0.2    71     0.3   824.0    0.00 
  49   19:00   0.00   37.3    99    0.3    76     0.6   824.0    0.00 
  49   19:10   0.00   37.3    99    0.5   191     1.2   824.0    0.00 
  49   19:20   0.00   37.2    99    0.3    11     0.9   824.0    0.00 
  49   19:30   0.00   37.3    99    0.4    48     0.8   824.0    0.00 
  49   19:40   0.00   37.3    99    0.3    73     0.5   824.0    0.00 
  49   19:50   0.00   37.2    99    0.5   216     0.9   824.0    0.00 
  49   20:00   0.00   37.3    99    0.4    32     0.9   825.0    0.00 
  49   20:10   0.00   37.1    99    0.5    73     0.9   825.0    0.00 
  49   20:20   0.00   37.2    99    0.1   183     0.3   825.0    0.00 
  49   20:30   0.00   37.2    99    0.2   150     0.6   825.0    0.00 
  49   20:40   0.00   37.2    99    0.3    88     0.6   825.0    0.00 
  49   20:50   0.00   37.2    99    0.4    14     0.7   825.0    0.00 
  49   21:00   0.00   37.3    99    0.4   112     1.0   825.0    0.00 
  49   21:10   0.00   37.3    99    0.3   242     0.6   825.0    0.00 
  49   21:20   0.00   37.2    99    0.3    75     0.6   825.0    0.00 
  49   21:30   0.00   37.2    99    0.2    34     0.3   825.0    0.00 
  49   21:40   0.00   37.1    99    0.3    18     0.5   825.0    0.00 
  49   21:50   0.00   36.9    99    0.3    74     0.6   826.0    0.00 
  49   22:00   0.00   36.9    99    0.3   103     0.7   826.0    0.00 
  49   22:10   0.00   37.0    99    0.2   323     0.4   826.0    0.00 
  49   22:20   0.00   37.1    99    0.3    64     0.8   826.0    0.00 
  49   22:30   0.00   37.2    99    0.3    70     0.5   826.0    0.00 
  49   22:40   0.00   37.4    99    0.3    67     0.7   826.0    0.00 
  49   22:50   0.00   37.5    99    0.3    58     0.8   826.0    0.00 
  49   23:00   0.00   37.5    99    0.2    51     0.7   826.0    0.00 
  49   23:10   0.00   37.5    99    0.3   228     0.9   826.0    0.02 
  49   23:20   0.00   37.5    99    0.3   117     0.6   827.0    0.02 
  49   23:30   0.00   37.4    99    0.3    66     0.8   827.0    0.01 
  49   23:40   0.00   37.5    99    0.4    28     1.1   827.0    0.01 
  49   23:50   0.00   37.4    99    0.5    59     1.2   827.0    0.01 
  50    0:00   0.00   37.3    99    0.3    53     1.1   827.0    0.02 
  50    0:10   0.00   37.2    99    0.5   130     1.7   827.0    0.00 
  50    0:20   0.00   37.2    99    0.2   274     0.3   827.0    0.01 
  50    0:30   0.00   37.2    99    0.3    16     0.8   827.0    0.02 
  50    0:40   0.00   37.2    99    0.3    60     0.6   827.0    0.03 
  50    0:50   0.00   37.1    99    0.4   244     1.3   827.0    0.02 
  50    1:00   0.00   37.1    99    0.4    59     1.2   827.0    0.00 
  50    1:10   0.00   37.3    99    0.4    91     1.1   827.0    0.00 
  50    1:20   0.00   37.4    99    0.4    72     1.0   827.0    0.01 
  50    1:30   0.00   37.4    99    0.2   106     0.5   827.0    0.00 
  50    1:40   0.00   37.4    99    0.3   100     0.7   827.0    0.01 
  50    1:50   0.00   37.3    99    0.3    69     0.6   827.0    0.01 
  50    2:00   0.00   37.2    99    0.5    71     1.3   827.0    0.00 
  50    2:10   0.00   37.1    99    0.3    65     0.8   827.0    0.01 
  50    2:20   0.00   37.3    99    0.3    81     0.6   827.0    0.01 
  50    2:30   0.00   37.4    99    0.3   322     1.0   827.0    0.03 
  50    2:40   0.00   37.3    99    0.5    78     1.4   827.0    0.03 
  50    2:50   0.00   37.2    99    0.5    84     1.0   827.0    0.02 
  50    3:00   0.00   37.2    99    0.5   101     1.1   827.0    0.00 
  50    3:10   0.00   37.1    99    0.6    79     1.5   827.0    0.00 
  50    3:20   0.00   37.0    99    0.6    84     1.8   828.0    0.00 
  50    3:30   0.00   36.9    99    0.6    63     1.6   828.0    0.03 

Return to James Reserve graphs page.


Western Regional Climate Center,wrcc@dri.edu